Location: *
(40.7873°S, 98.7174°E)
Time: 12:17:58
(UTC+00:00)

NOSS 3-4 (C) - Pass Details

Date: 01 October 2022
Orbit: 836 x 1376 km, 63.4° (Epoch: 25 November)

Event Time Altitude Azimuth Distance (km) Brightness Sun altitude
Exits shadow 21:11:08 19° 251° (WSW) 2,786 5.4 -20.4°
Maximum altitude 21:15:00 25° 214° (SW) 2,360 5.4 -19.7°
Drops below altitude 10° 21:21:18 10° 160° (SSE) 3,198 6.7 -18.6°
Sets 21:24:35 0° 147° (SSE) 4,077 7.7 -18.1°
